Tracking 25689 objects as of 7-Jul-2022
HD Live streaming from Space Station
objects crossing your sky now

FENGYUN 1C DEB

Track FENGYUN 1C DEB now!
10-day predictions


NORAD ID: 33727
Int'l Code: 1999-025DHQ
Perigee: 629.2 km
Apogee: 668.9 km
Inclination: 99.8 °
Period: 97.6 minutes
Semi major axis: 7020 km
RCS: 0.003 m2 (small)
Launch date: May 10, 1999
Source: People's Republic of China (PRC)
Launch site: Taiyaun Space Center, China (TSC)

Note: This is SATELLITE DEBRIS
aabbcc
Your satellite tracking list
Your tracking list is empty




NASA's NSSDC Master Catalog

Two Line Element Set (TLE):
1 33727U 99025DHQ 22163.66545670  .00025599  00000-0  36877-2 0  9993
2 33727  99.7635 325.7354 0028258 198.0122 162.0082 14.76031830449324
Source of the keplerian elements: AFSPC